TimeEDT,TemperatureF,Dew PointF,Humidity,Sea Level PressureIn,VisibilityMPH,Wind Direction,Wind SpeedMPH,Gust SpeedMPH,PrecipitationIn,Events,Conditions,WindDirDegrees,DateUTC
12:53 AM,68.0,66.0,93,29.96,10.0,Calm,Calm,-,N/A,,Partly Cloudy,0,2013-07-11 04:53:00
1:53 AM,68.0,66.0,93,29.95,10.0,Calm,Calm,-,N/A,,Mostly Cloudy,0,2013-07-11 05:53:00
2:53 AM,66.9,64.9,93,29.94,10.0,Calm,Calm,-,N/A,,Mostly Cloudy,0,2013-07-11 06:53:00
3:05 AM,66.2,64.4,94,29.96,10.0,Calm,Calm,-,N/A,,Mostly Cloudy,0,2013-07-11 07:05:00
3:13 AM,66.2,64.4,94,29.96,10.0,Calm,Calm,-,N/A,,Mostly Cloudy,0,2013-07-11 07:13:00
3:53 AM,66.9,66.0,97,29.95,6.0,Calm,Calm,-,N/A,,Mostly Cloudy,0,2013-07-11 07:53:00
4:04 AM,68.0,66.2,94,29.96,9.0,Calm,Calm,-,N/A,,Mostly Cloudy,0,2013-07-11 08:04:00
4:53 AM,70.0,68.0,93,29.96,6.0,North,3.5,-,N/A,,Overcast,360,2013-07-11 08:53:00
5:14 AM,69.8,66.2,88,29.97,10.0,Calm,Calm,-,N/A,,Overcast,0,2013-07-11 09:14:00
5:31 AM,69.8,66.2,88,29.97,10.0,Calm,Calm,-,N/A,,Overcast,0,2013-07-11 09:31:00
5:53 AM,70.0,66.0,87,29.96,8.0,Calm,Calm,-,N/A,,Overcast,0,2013-07-11 09:53:00
6:05 AM,69.8,66.2,88,29.98,9.0,NNW,3.5,-,N/A,,Overcast,340,2013-07-11 10:05:00
6:53 AM,68.0,61.0,78,29.98,10.0,Calm,Calm,-,N/A,,Clear,0,2013-07-11 10:53:00
7:34 AM,69.8,62.6,78,30.00,10.0,NNE,4.6,-,N/A,,Mostly Cloudy,30,2013-07-11 11:34:00
7:53 AM,69.1,61.0,75,29.99,10.0,Variable,3.5,-,N/A,,Overcast,0,2013-07-11 11:53:00
8:19 AM,69.8,62.6,78,30.01,10.0,NW,3.5,-,N/A,,Mostly Cloudy,320,2013-07-11 12:19:00
8:53 AM,70.0,61.0,73,30.00,10.0,North,5.8,-,N/A,,Mostly Cloudy,360,2013-07-11 12:53:00
9:53 AM,73.0,63.0,71,30.00,10.0,Variable,6.9,-,N/A,,Clear,0,2013-07-11 13:53:00
10:53 AM,75.0,63.0,66,30.00,10.0,NNW,6.9,-,N/A,,Mostly Cloudy,330,2013-07-11 14:53:00
11:53 AM,77.0,64.9,66,30.01,10.0,Variable,4.6,-,N/A,,Scattered Clouds,0,2013-07-11 15:53:00
12:53 PM,79.0,64.9,62,30.01,10.0,NE,8.1,-,N/A,,Scattered Clouds,50,2013-07-11 16:53:00
1:53 PM,80.1,66.0,62,30.00,10.0,NE,4.6,-,N/A,,Scattered Clouds,40,2013-07-11 17:53:00
2:53 PM,81.0,64.0,56,29.99,10.0,NNE,13.8,17.3,N/A,,Mostly Cloudy,30,2013-07-11 18:53:00
3:53 PM,80.1,61.0,52,29.99,10.0,North,9.2,-,N/A,,Mostly Cloudy,360,2013-07-11 19:53:00
4:53 PM,78.1,62.1,58,29.99,10.0,NNE,15.0,24.2,N/A,,Mostly Cloudy,20,2013-07-11 20:53:00
5:53 PM,79.0,61.0,54,29.99,10.0,North,13.8,19.6,N/A,,Mostly Cloudy,360,2013-07-11 21:53:00
6:53 PM,78.1,59.0,52,30.01,10.0,NNE,10.4,-,N/A,,Clear,30,2013-07-11 22:53:00
7:53 PM,77.0,57.0,50,30.01,10.0,North,10.4,17.3,N/A,,Mostly Cloudy,360,2013-07-11 23:53:00
8:53 PM,73.0,57.0,57,30.01,10.0,North,4.6,-,N/A,,Clear,360,2013-07-12 00:53:00
9:53 PM,69.1,55.9,63,30.01,10.0,NNE,4.6,-,N/A,,Clear,20,2013-07-12 01:53:00
10:53 PM,63.0,57.9,84,30.03,10.0,Calm,Calm,-,N/A,,Clear,0,2013-07-12 02:53:00
11:53 PM,61.0,57.9,90,30.04,10.0,Calm,Calm,-,N/A,,Clear,0,2013-07-12 03:53:00